Orbital Elements at Epoch 2459200.5 (2020-Dec-17.0) TDB
Reference: JPL 21 (heliocentric ecliptic J2000)
Element | Value | Uncertainty (1-sigma) | Units |
e | .216925943286677 | 5.9353e-08 | |
a | 2.711091553762325 | 2.2733e-08 | au |
q | 2.12298546112589 | 1.6376e-07 | au |
i | 15.02407625585641 | 5.3315e-06 | deg |
node | 87.9826956518353 | 2.4683e-05 | deg |
peri | 231.7195007147512 | 2.8902e-05 | deg |
M | 214.4026989461873 | 1.7618e-05 | deg |
tp | 2459859.925180043231 (2022-Oct-07.42518004) | 8.1468e-05 | TDB |
period | 1630.477097427944 4.46 | 2.0508e-05 5.615e-08 | d yr |
n | .2207942697066369 | 2.7771e-09 | deg/d |
Q | 3.299197646398761 | 2.7665e-08 | au |
|
| | Orbit Determination Parameters
Additional Information
|